World > North America > United States > New York

Solon Pond, New York Regional Weather

Lat: 42.62N, Lon: 75.92W
Wx Zone: NYZ044Web Search

Helpful Tip: Type the letters wx in the search engine next time you need to find us.

Feedback

Solon Pond, NY Regional Weather

Expires:202008121200;;330954
ASUS41 KBGM 121110
RWRBGM

REGIONAL WEATHER ROUNDUP
NATIONAL WEATHER SERVICE BINGHAMTON NY
700 AM EDT WED AUG 12 2020

Note: "fair" indicates few or no clouds below 12,000 feet with no
significant weather and/or obstructions to visibility.

* = Station(s) that does not report precipitation, such as rain, 
snow, etc, also no thunder or fog.


NYZ009-015>018-022>025-036-037-044>046-055>057-062-121200
...Central New York...
  
CITY           SKY/WX    TMP DP  RH WIND       PRES   REMARKS
Binghamton     CLOUDY    67  65  93 NW5       30.09R                  
Cortland       FAIR      63  63 100 CALM      30.09R                  
Dansville      PTCLDY    62  57  83 CALM      30.10R                  
Elmira         CLOUDY    68  67  96 SW3       30.08R                  
Endicott       CLOUDY    68  68 100 CALM      30.07R FOG              
Ithaca         PTCLDY    64  64 100 CALM      30.10R                  
Hamilton       PTCLDY    66  64  94 CALM      30.08                   
Monticello     CLEAR     67  66  97 W3        30.08R                  
Norwich        CLOUDY    68  68 100 CALM      30.08R                  
Oneonta        MOCLDY    66  66 100 W3        30.10R FOG              
Penn Yan       PTCLDY    65  59  81 S6        30.09R                  
Rome           PTCLDY    69  66  90 W5        30.05R                  
Sidney         FOG       68  68 100 CALM      30.08R VSB 1/4          
Skaneateles    FAIR      64  64 100 W3        30.08R                  
Syracuse       MOCLDY    69  62  78 SW5       30.05R                  
$$
 

SKY/WX - Weather  TMP - Temperature  DP - Dew Point  RH - Relative Humidity
WIND - Wind Direction/Speed PRES - Barometric Pressure VSB - Visibility
WCI - Wind Chill Index E13G22 Wind - East Wind 13 mph/Gusts of 22 mph
Solon Pond Weather Map
UTC Time: 8/12/2020, 11:56
Your Time: